#timestamp,LO_Frequency,Hit,StdDev 
1509498015.5,286046996.9,N
1509498035.3,286046997.0,N
1509498055.2,286047001.4,N
1509498075.9,286047001.8,N
1509498095.7,286047004.1,N
1509498115.6,286047003.9,N
1509498135.4,286047005.1,N
1509498155.2,286047007.6,N
1509498175.1,286047006.0,N
1509498176.0,286047006.0,N
1509498195.8,286047007.5,N
1509498215.6,286047006.5,N
1509498235.5,286047009.2,N
1509498255.3,286047008.7,N
1509498275.1,286047009.2,N
1509498295.9,286047008.7,N
1509498315.7,286047007.8,N
1509498335.5,286047010.6,N
1509498355.4,286047006.7,N
1509498375.2,286047006.5,N
1509498395.0,286047004.6,N
1509498395.9,286047004.6,N
1509498415.8,286047005.3,N
1509498435.6,286047009.2,N
1509498455.4,286047008.0,N
1509498475.3,286047011.6,N
1509498495.1,286047010.8,N
1509498515.8,286047009.4,N
1509498535.7,286047011.5,N
1509498555.5,286047010.8,N
1509498575.3,286047010.1,N
1509498595.2,286047008.9,N
1509498615.9,286047004.7,N
1509498635.7,286047006.9,N
1509498655.6,286047007.0,Y
1509498675.4,286046996.6,P
1509498695.2,286046999.2,N
1509498715.1,286047002.2,N
1509498716.0,286047002.2,N
1509498735.8,286046999.4,N
1509498755.7,286047000.6,N
1509498775.5,286046997.6,N
1509498795.3,286046997.3,N
1509498815.2,286047002.4,N
1509498835.9,286047001.0,N
1509498855.7,286047000.9,N
1509498875.6,286046999.5,N
1509498895.4,286046995.2,N
1509498915.2,286046996.7,N
1509498935.1,286046999.0,N
1509498936.0,286046999.0,N
1509498955.8,286046995.8,N
1509498975.6,286046995.2,N
1509498995.5,286046995.5,N
1509499015.3,286046996.4,N
1509499035.1,286046994.3,N
1509499055.9,286046993.9,N
1509499075.7,286046996.1,N
1509499095.5,286046998.0,N
1509499115.4,286046998.6,N
1509499135.2,286046998.9,N
1509499155.0,286046999.6,N
1509499155.9,286046999.6,N
1509499175.8,286046997.1,N
1509499195.6,286046997.3,N
1509499215.5,286046997.4,N
1509499235.3,286046999.5,N
1509499255.1,286046996.6,N
1509499275.9,286046997.9,N
1509499295.7,286046998.0,N
1509499315.5,286046997.9,N
1509499335.4,286046997.4,N
1509499355.2,286046994.3,N
1509499375.0,286046991.8,Y
1509499375.9,286046991.8,P
1509499395.8,286046995.1,N
1509499415.6,286047000.4,N
1509499435.4,286046999.9,N
1509499455.3,286046999.1,N
1509499475.1,286046998.2,N
1509499495.9,286047001.1,N
1509499515.7,286046998.9,N
1509499535.5,286047001.7,N
1509499555.4,286047001.6,N
1509499575.2,286046999.2,N
1509499595.0,286046996.6,N
1509499595.9,286046996.6,N
1509499615.8,286047001.0,N
1509499635.6,286046999.9,N
1509499655.4,286047000.4,N
1509499675.3,286047000.3,N
1509499695.1,286046998.2,N
1509499696.0,286046998.2,N
1509499715.8,286047000.4,N
1509499735.7,286046999.1,N
1509499755.5,286046998.4,N
1509499775.3,286047000.7,N
1509499795.2,286047000.9,N
1509499815.9,286047000.5,N
1509499835.7,286046998.9,N
1509499855.6,286047002.7,N
1509499875.4,286047002.7,N
1509499895.2,286047000.9,N
1509499915.1,286047002.7,N
1509499916.0,286047002.7,N
1509499935.8,286047004.0,N
1509499955.6,286047000.2,N
1509499975.5,286047000.4,N
1509499995.3,286047001.8,N
1509500015.1,286047002.8,N
1509500035.9,286047001.0,N
1509500055.7,286047002.8,N
1509500075.5,286047003.6,N
1509500095.4,286046998.2,N
1509500115.2,286047002.1,N
1509500135.1,286047002.4,N
1509500136.0,286047002.4,N
1509500155.8,286047002.9,N
1509500175.6,286047003.0,N
1509500195.5,286047004.6,N
1509500215.3,286047007.2,Y
1509500235.1,286047004.5,P
1509500255.9,286047005.2,P
1509500275.7,286047003.0,N
1509500295.5,286047007.3,Y
1509500315.4,286047002.6,P
1509500335.2,286047001.0,N
1509500355.1,286047002.8,N
1509500356.0,286047002.8,Y
1509500375.8,286047000.9,P
1509500395.6,286046998.1,N
1509500415.5,286046995.0,N
1509500435.3,286046999.5,N
1509500455.1,286047000.5,N
1509500475.9,286047001.0,N
1509500495.7,286046999.1,N
1509500515.5,286046998.4,N
1509500535.4,286047001.8,N
1509500555.2,286047002.1,N
1509500575.0,286047002.0,N
1509500575.9,286047002.0,N
1509500595.8,286047001.1,N
1509500615.6,286046996.7,N
1509500635.4,286046998.2,N
1509500655.3,286046996.5,N
1509500675.1,286046996.7,N
1509500695.8,286046999.4,N
1509500715.7,286047000.0,N
1509500735.5,286046996.5,N
1509500755.3,286046999.5,N
1509500775.2,286046998.6,N
1509500795.0,286046997.8,N
1509500795.9,286046997.8,N
1509500815.8,286046999.0,N
1509500835.6,286046996.5,N
1509500855.4,286047000.9,N
1509500875.3,286047001.0,N
1509500895.1,286046999.1,N
1509500896.0,286046999.1,N
1509500915.8,286046998.7,N
1509500935.7,286046998.7,N
1509500955.5,286047001.4,N
1509500975.3,286047003.5,N
1509500995.2,286047005.9,Y
1509501015.0,286047004.5,P
1509501015.9,286047004.5,N
1509501035.7,286047006.4,N
1509501055.6,286047006.6,N
1509501075.4,286047004.2,N
1509501095.2,286046997.0,N
1509501115.1,286046996.3,N
1509501116.0,286046996.3,N
1509501135.8,286046995.7,N
1509501155.7,286046994.7,N
1509501175.5,286046990.2,N
1509501195.3,286046987.0,N
1509501215.2,286046985.3,N
1509501235.9,286046984.3,N
1509501255.7,286046984.8,N
1509501275.6,286046982.4,N
1509501295.4,286046983.6,N
1509501315.2,286046983.5,N
1509501335.1,286046985.4,N
1509501336.0,286046985.4,N
1509501355.8,286046985.1,N
1509501375.6,286046982.6,N
1509501395.5,286046980.8,N
1509501415.3,286046981.4,N
1509501435.1,286046979.0,N
1509501455.9,286046977.9,N
1509501475.7,286046981.1,N
1509501495.5,286046981.7,N
1509501515.4,286046983.0,N
1509501535.2,286046982.3,N
1509501555.0,286046985.9,N
1509501555.9,286046985.9,N
1509501575.8,286046988.4,N
1509501595.6,286046985.4,N
